This demonstration page uses our WeatherBlox Daily Observations layout. Learn more.

Left ArrowRight Arrow

39.29038, -76.61219

Hourly Observations for March 11, 2018

Temp ( °F °C ) Dew Point ( °F °C ) Humidity (%) Winds ( mph kmh ) Pressure ( in mb ) Visibility ( mi km ) Precip ( " mm )
12:54 am 00:54 undefined 38 3.3 18 -7.8 44 44 undefined N/A 30.09 1019 N/A 0.00 0.00
1:54 am 01:54 undefined 38 3.3 18 -7.8 44 44 undefined N/A 30.09 1019 N/A 0.00 0.00
3:54 am 03:54 undefined 37 2.8 17 -8.3 44 44 undefined N/A 30.11 1020 N/A 0.00 0.00
4:54 am 04:54 undefined 35 1.7 18 -7.8 50 50 undefined N/A 30.11 1020 N/A 0.00 0.00
5:54 am 05:54 undefined 36 2.2 17 -8.3 46 46 undefined N/A 30.11 1020 N/A 0.00 0.00
6:54 am 06:54 undefined 35 1.7 16 -8.9 46 46 undefined N/A 30.13 1020 N/A 0.00 0.00
7:54 am 07:54 undefined 35 1.7 17 -8.3 48 48 undefined N/A 30.14 1021 N/A 0.00 0.00
8:54 am 08:54 undefined 37 2.8 15 -9.4 41 41 undefined N/A 30.19 1022 N/A 0.00 0.00
9:54 am 09:54 undefined 38 3.3 15 -9.4 39 39 undefined N/A 30.17 1022 N/A 0.00 0.00
10:54 am 10:54 undefined 40 4.4 16 -8.9 38 38 undefined N/A 30.19 1022 N/A 0.00 0.00
11:54 am 11:54 undefined 42 5.6 17 -8.3 36 36 undefined N/A 30.16 1021 N/A 0.00 0.00
12:54 pm 12:54 undefined 46 7.8 18 -7.8 32 32 undefined N/A 30.16 1021 N/A 0.00 0.00
1:54 pm 13:54 undefined 47 8.3 18 -7.8 31 31 undefined N/A 30.11 1020 N/A 0.00 0.00
2:54 pm 14:54 undefined 49 9.4 18 -7.8 29 29 undefined N/A 30.09 1019 N/A 0.00 0.00
3:54 pm 15:54 undefined 51 10.6 20 -6.7 29 29 undefined N/A 30.08 1019 N/A 0.00 0.00
4:54 pm 16:54 undefined 49 9.4 18 -7.8 29 29 undefined N/A 30.05 1018 N/A 0.00 0.00
5:54 pm 17:54 undefined 46 7.8 23 -5 40 40 undefined N/A 30.02 1017 N/A 0.00 0.00
6:54 pm 18:54 undefined 45 7.2 20 -6.7 37 37 undefined N/A 30.05 1018 N/A 0.00 0.00
7:54 pm 19:54 undefined 44 6.7 21 -6.1 40 40 undefined N/A 30.07 1018 N/A 0.00 0.00
8:54 pm 20:54 undefined 44 6.7 22 -5.6 41 41 undefined N/A 30.07 1018 N/A 0.00 0.00
9:54 pm 21:54 undefined 42 5.6 22 -5.6 45 45 undefined N/A 30.07 1018 N/A 0.00 0.00
10:54 pm 22:54 undefined 42 5.6 21 -6.1 43 43 undefined N/A 30.07 1018 N/A 0.00 0.00
11:54 pm 23:54 undefined 41 5 20 -6.7 43 43 undefined N/A 30.07 1018 N/A 0.00 0.00

Powered by AerisWeather